Tracking 29059 objects as of 19-Jun-2024
HD Live streaming from Space Station
objects crossing your sky now

OBJECT F

Track OBJECT F now!
10-day predictions


NORAD ID: 57171
Int'l Code: 2023-091F
Perigee: 536.7 km
Apogee: 560.0 km
Inclination: 97.6 °
Period: 95.5 minutes
Semi major axis: 6919 km
RCS: Unknown
Launch date: June 27, 2023
Source: (TBD)
Launch site: VOSTOCHNY COSMODROME (VOSTO)
Your satellite tracking list
Your tracking list is empty




NASA's NSSDC Master Catalog

Two Line Element Set (TLE):
1 57171U 23091F   24170.88770613  .00006799  00000-0  44022-3 0  9996
2 57171  97.6150 223.2563 0016814 114.3505 245.9481 15.08357986 53769
Source of the keplerian elements: AFSPC